Weather History for Fort Polk, LA

Change the Weather History Date:

Tuesday, November 5, 2013

  Actual Average (KPOE) Record (KPOE)
Temperature  
Mean Temperature 70 °F -  
Max Temperature 79 °F 69 °F 82 °F (2003)
Min Temperature 60 °F 49 °F 39 °F (2010)
Cooling Degree Days 4    
Growing Degree Days 20 (Base 50)    
Moisture  
Dew Point 62 °F    
Average Humidity 78    
Maximum Humidity 90    
Minimum Humidity 61    
Precipitation  
Precipitation 0.00 in - - ()
Sea Level Pressure  
Sea Level Pressure 30.14 in    
Wind  
Wind Speed 3 mph (SE)    
Max Wind Speed 9 mph    
Max Gust Speed -    
Visibility 10 miles    
Events      
Averages and records for this station are not official NWS values.
T = Trace of Precipitation, MM = Missing Value Source: NWS Daily Summary

Daily Weather History Graph

Daily Weather History Graph

Search for Another Location

Airport:

Trip Planner

Search our weather history database for the weather conditions in past years. The results will help you decide how hot, cold, wet, or windy it might be!

Date:

Astronomy

Nov. 05, 2013 Rise Set
Actual Time 6:30 AM CST 5:19 PM CST
Civil Twilight 6:05 AM CST 5:44 PM CST
Nautical Twilight 5:36 AM CST 6:13 PM CST
Astronomical Twilight 5:07 AM CST 6:42 PM CST
Moon 8:40 AM CST (11/5) 7:27 PM CST (11/5)
Length of Visible Light 11h 39m
Length of Day
10h 49m
Waxing Crescent, 7% of the Moon is Illuminated
Nov 5
Waxing Crescent
Nov 9
First Quarter
Nov 17
Full
Nov 25
Last Quarter
Dec 2
New

Hourly Weather History & Observations

Time (CST) Temp. Dew Point Humidity Pressure Visibility Wind Dir Wind Speed Gust Speed Precip Events Conditions
12:54 AM 62.1 °F 57.0 °F 84% 30.18 in 10.0 mi Calm Calm - N/A   Clear
1:54 AM 62.1 °F 57.0 °F 84% 30.18 in 10.0 mi Calm Calm - N/A   Clear
2:54 AM 60.1 °F 55.9 °F 86% 30.16 in 10.0 mi Calm Calm - N/A   Clear
3:54 AM 60.1 °F 55.9 °F 86% 30.16 in 10.0 mi Calm Calm - N/A   Clear
4:54 AM 61.0 °F 57.0 °F 87% 30.16 in 10.0 mi Calm Calm - N/A   Clear
5:54 AM 60.1 °F 57.0 °F 90% 30.16 in 10.0 mi Variable 3.5 mph - N/A   Clear
6:54 AM 60.1 °F 57.0 °F 90% 30.19 in 9.0 mi Calm Calm - N/A   Clear
7:54 AM 63.0 °F 57.9 °F 84% 30.20 in 10.0 mi Variable 3.5 mph - N/A   Clear
8:21 AM 64.4 °F 59.0 °F 83% 30.11 in 10.0 mi Variable 6.9 mph - N/A   Partly Cloudy
8:54 AM 66.9 °F 60.1 °F 79% 30.20 in 10.0 mi Variable 4.6 mph - N/A   Partly Cloudy
9:30 AM 71.6 °F 62.6 °F 73% 30.12 in 10.0 mi Calm Calm - N/A   Mostly Cloudy
9:54 AM 72.0 °F 63.0 °F 73% 30.20 in 10.0 mi SE 9.2 mph - N/A   Overcast
10:54 AM 73.9 °F 63.0 °F 68% 30.19 in 10.0 mi Variable 5.8 mph - N/A   Mostly Cloudy
11:54 AM 75.9 °F 64.0 °F 67% 30.16 in 10.0 mi Variable 5.8 mph - N/A   Overcast
12:33 PM 78.8 °F 64.4 °F 61% 30.06 in 10.0 mi Variable 4.6 mph - N/A   Mostly Cloudy
12:54 PM 79.0 °F 64.9 °F 62% 30.14 in 10.0 mi SSE 8.1 mph - N/A   Mostly Cloudy
1:54 PM 77.0 °F 64.9 °F 66% 30.12 in 10.0 mi Variable 6.9 mph - N/A   Overcast
2:02 PM 75.2 °F 64.4 °F 69% 30.04 in 10.0 mi Variable 5.8 mph - N/A   Overcast
2:22 PM 75.2 °F 64.4 °F 69% 30.04 in 10.0 mi Variable 4.6 mph - N/A   Overcast
2:54 PM 77.0 °F 64.0 °F 64% 30.11 in 10.0 mi Variable 6.9 mph - N/A   Overcast
3:54 PM 75.0 °F 64.0 °F 69% 30.11 in 10.0 mi SE 5.8 mph - N/A   Overcast
4:54 PM 73.0 °F 64.9 °F 76% 30.11 in 10.0 mi Variable 4.6 mph - N/A   Overcast
5:54 PM 72.0 °F 64.9 °F 78% 30.12 in 10.0 mi Calm Calm - N/A   Overcast
6:54 PM 71.1 °F 64.0 °F 78% 30.13 in 10.0 mi Variable 3.5 mph - N/A   Overcast
7:54 PM 70.0 °F 63.0 °F 78% 30.14 in 10.0 mi Calm Calm - N/A   Overcast
8:18 PM 69.8 °F 62.6 °F 78% 30.06 in 10.0 mi Variable 4.6 mph - N/A   Overcast
8:54 PM 68.0 °F 63.0 °F 84% 30.15 in 10.0 mi Variable 3.5 mph - N/A   Clear
9:54 PM 66.9 °F 63.0 °F 87% 30.16 in 10.0 mi SE 3.5 mph - N/A   Clear
10:45 PM 68.0 °F 62.6 °F 83% 30.08 in 10.0 mi Variable 3.5 mph - N/A   Overcast
10:54 PM 68.0 °F 63.0 °F 84% 30.17 in 10.0 mi Variable 4.6 mph - N/A   Overcast
11:14 PM 68.0 °F 62.6 °F 83% 30.08 in 10.0 mi SE 4.6 mph - N/A   Overcast
11:54 PM 68.0 °F 63.0 °F 84% 30.15 in 10.0 mi Variable 5.8 mph - N/A   Overcast